Location: Roland
(31.1349°N, 85.4372°W)
Time: 22:57:10
(UTC+00:00)

Tiros 1 - Pass Details

Date: 24 April 2021
Orbit: 630 x 664 km, 48.4° (Epoch: 13 May)

Event Time Altitude Azimuth Distance (km) Brightness Sun altitude
Rises 11:10:26 0° 198° (SSW) 2,955 10.2 0.6°
Reaches altitude 10° 11:13:06 10° 185° (S) 2,041 9.5 1.1°
Maximum altitude 11:16:55 25° 131° (SE) 1,305 9.3 1.9°
Drops below altitude 10° 11:20:43 10° 76° (ENE) 2,031 12.5 2.7°
Sets 11:23:22 0° 63° (ENE) 2,936 12.6 3.2°
